Precipitable_Water
1.11 1.16 1.19 1.26 1.29 1.31 1.34 1.35 1.41 1.40 1.40 1.41 1.34 1.37 1.36 1.28 1.23 1.20 1.15 1.15 1.13 1.11
0.95 0.97 0.98 1.06 1.16 1.24 1.31 1.36 1.36 1.35 1.31 1.29 1.28 1.30 1.29 1.25 1.19 1.20 1.16 1.15 1.12 1.08
0.91 0.96 0.99 1.02 1.06 1.15 1.22 1.29 1.30 1.30 1.29 1.23 1.19 1.19 1.18 1.16 1.17 1.17 1.16 1.12 1.11 1.07
0.88 0.91 0.96 0.96 1.01 1.06 1.12 1.20 1.23 1.24 1.22 1.16 1.11 1.08 1.10 1.06 1.06 1.06 1.07 1.08 1.09 1.07
0.87 0.89 0.88 0.90 0.94 1.00 0.98 1.05 1.09 1.12 1.08 1.04 1.02 1.02 1.01 1.00 1.02 1.03 1.02 1.05 1.04 1.05
0.82 0.85 0.89 0.93 0.95 0.94 0.95 0.94 0.96 0.95 0.93 0.93 0.95 0.94 0.96 0.98 0.97 0.99 1.01 1.01 1.02 1.06
0.80 0.82 0.89 0.94 0.97 0.97 0.99 0.98 0.97 0.97 0.97 0.96 0.98 0.97 0.95 0.97 0.96 0.97 0.99 1.03 1.04 1.06
0.84 0.86 0.86 0.89 0.94 0.97 0.98 0.99 1.01 1.00 1.00 1.01 1.01 0.99 0.97 0.97 0.98 0.97 0.98 0.98 1.00 1.04
0.84 0.86 0.85 0.86 0.89 0.92 0.93 0.93 0.94 0.94 0.95 0.95 0.96 0.96 0.97 0.96 0.94 0.96 0.94 0.90 0.94 0.94
0.92 0.87 0.86 0.88 0.89 0.90 0.91 0.95 0.94 0.93 0.93 0.90 0.91 0.93 0.96 0.98 0.97 0.96 0.95 0.94 0.93 0.93
1.02 0.95 0.94 0.95 0.92 0.94 0.97 0.95 0.94 0.92 0.93 0.94 0.93 0.95 0.97 0.99 0.98 0.93 0.93 0.92 0.91 0.88
1.10 1.06 1.01 0.97 0.98 0.98 0.98 0.97 0.97 0.97 0.97 0.97 0.95 0.96 0.99 1.02 0.98 0.93 0.92 0.92 0.90 0.86
1.16 1.12 1.09 1.06 1.02 1.01 1.01 0.98 0.97 0.98 0.98 0.98 0.97 0.98 0.98 0.99 0.98 0.93 0.89 0.86 0.86 0.86
1.15 1.17 1.13 1.13 1.13 1.09 1.03 0.99 0.95 0.97 0.99 0.98 0.95 0.94 0.94 0.94 0.95 0.92 0.87 0.82 0.79 0.77
Wind_Speed
11 12 14 17 19 23 25 27 28 28 29 31 29 30 32 31 30 30 28 26 25 24
11 12 13 15 17 20 23 27 27 26 24 27 27 28 29 28 29 29 28 25 25 25
12 12 13 15 16 17 21 27 28 26 24 24 25 26 26 27 28 27 27 26 26 25
12 12 14 15 16 17 18 22 25 26 25 24 23 24 24 25 27 26 26 26 26 26
12 12 13 14 15 17 18 20 22 24 25 24 23 23 24 25 26 27 26 26 27 28
14 14 15 15 16 17 17 19 20 21 22 24 24 24 25 25 26 27 29 28 28 28
16 16 17 17 17 18 18 19 20 21 22 23 24 25 26 26 27 28 29 29 29 30
19 18 18 20 20 20 21 21 21 22 23 24 25 26 27 27 27 27 27 28 29 29
23 21 21 21 22 22 23 23 23 23 24 24 25 25 27 28 28 27 27 27 27 27
25 24 24 23 24 24 24 24 25 24 24 24 24 25 25 26 26 27 27 27 27 27
26 25 25 24 24 24 24 24 24 24 24 23 23 23 24 24 25 25 25 26 27 28
27 26 27 26 26 24 24 24 24 24 23 23 23 23 24 25 25 25 25 26 27 27
29 28 27 26 26 26 26 25 25 24 25 25 25 25 25 26 26 26 26 26 26 26
29 28 28 27 27 27 27 27 26 25 25 25 27 27 27 27 27 27 28 28 29 29
Wind_Direction
188 191 194 195 197 199 203 203 201 203 209 211 219 220 218 226 224 221 221 226 232 240
193 193 194 196 200 203 203 200 203 205 208 212 216 217 220 222 219 217 223 229 237 242
200 200 200 199 199 201 203 204 208 208 211 212 213 216 222 220 219 223 229 235 243 247
202 201 201 200 200 199 198 200 201 206 210 214 217 218 217 219 220 227 232 238 244 246
205 201 199 199 199 198 199 200 205 210 214 215 218 218 220 223 226 231 235 243 249 251
211 209 207 204 203 202 202 205 206 209 213 216 221 223 225 229 234 238 242 248 251 254
215 215 214 213 212 211 212 213 214 217 218 221 225 228 231 236 240 244 247 250 254 259
223 223 222 220 220 220 221 222 222 224 227 230 233 236 238 241 245 248 249 251 256 260
228 228 227 226 224 226 226 227 228 231 234 236 239 241 243 244 246 248 250 252 255 260
229 230 230 229 229 229 230 231 232 235 236 238 241 242 243 245 248 249 251 254 257 261
232 231 230 230 231 232 233 233 235 236 238 239 243 244 243 245 248 251 254 258 261 265
234 234 232 232 233 234 234 234 236 237 239 241 244 245 245 246 251 255 259 262 265 266
237 236 235 235 235 237 237 237 238 241 244 245 247 249 251 251 253 256 258 264 267 270
240 239 237 238 237 237 237 238 239 241 247 250 252 252 253 252 254 255 259 263 268 271